sat.trackr.live / text

‹ back to catalog

STARLINK-34264

NORAD 64277 · 2025-120X

PAYLOAD ACTIVE UNKNOWN

§ Identity

Operator
Country
US
Launch date
2025-06-04
Launch site
AFWTR
Launch vehicle
Mass (kg)
RCS (m²)

Purposes: comms

External: N2YO · Heavens-Above · Gunter

§ Orbital elements

Epoch: 2026-05-25T05:36:14.652288Z

Period
94.10 min
Inclination
53.1570°
Eccentricity
0.0001316
Mean motion
15.30210596 rev/d
Perigee alt
474.3 km
Apogee alt
476.1 km
Semi-major
6,853.3 km
B*
5.2904e-4
RAAN
121.2703°
Arg perigee
80.1127°
Mean anomaly
280.0023°
Rev number
5,557

§ Raw data

STARLINK-342641 64277U 25120X   26145.23350292  .00015347  00000+0  52904-3 0  99922 64277  53.1570 121.2703 0001316  80.1127 280.0023 15.30210596 55574

JSON: /api/v1/satellites/64277 · /tle

For live sub-satellite position, see the globe view (requires WebGL).

§ Visibility from observer

Set your observer location to see the next 7 days of passes ≥ 10°. The values pass through the URL so the page stays shareable.

No JS? Fill the form by hand. The geolocation button needs JavaScript.